Location: Unspecified
(52.4292°N, 19.3359°E)
Time: 02:45:55
(UTC+02:00)

Vanguard 1 Rocket - Pass Details

Date: 22 May 2024
Orbit: 649 x 4221 km, 34.3° (Epoch: 13 June)

Event Time Altitude Azimuth Distance (km) Brightness Sun altitude
Rises 06:37:38 0° 178° (S) 8,393 12.2 15.8°
Reaches altitude 10° 06:52:13 10° 148° (SSE) 6,730 12.2 18.0°
Maximum altitude 06:55:33 11° 139° (SE) 6,444 12.2 18.5°
Drops below altitude 10° 06:58:40 10° 130° (SE) 6,242 12.3 19.0°
Sets 07:08:59 0° 98° (E) 6,227 13.0 20.5°
